Location: Bieujac
(44.5398°N, 0.1549°W)
Time: 00:19:05
(UTC+00:00)

Cosmos 1408 - Pass Details

Date: 17 November 2019
Orbit: 470 x 497 km, 82.6° (Epoch: 05 December)

Event Time Altitude Azimuth Distance (km) Brightness Sun altitude
Rises 05:06:13 0° 176° (S) 2,564 6.4 -20.0°
Reaches altitude 10° 05:08:21 10° 172° (S) 1,684 5.5 -19.6°
Maximum altitude 05:11:57 53° 95° (E) 609 3.4 -19.0°
Drops below altitude 10° 05:15:33 10° 18° (NNE) 1,685 5.4 -18.4°
Sets 05:17:41 0° 13° (NNE) 2,567 6.3 -18.0°
